Weather History for Covington, KY

Change the Weather History Date:

Sunday, July 28, 2013

  Actual Average Record
Temperature  
Mean Temperature 63 °F 76 °F  
Max Temperature 73 °F 86 °F 103 °F (1930)
Min Temperature 53 °F 66 °F 53 °F (1962)
Degree Days  
Heating Degree Days 2 0  
Month to date heating degree days 2 0  
Since 1 June heating degree days 3 15  
Since 1 July heating degree days 2 0  
Cooling Degree Days 0 11  
Month to date cooling degree days 293 306  
Year to date cooling degree days 671 626  
Since 1 June cooling degree days 532 532  
Growing Degree Days 13 (Base 50)    
Moisture  
Dew Point 51 °F    
Average Humidity 69    
Maximum Humidity 93    
Minimum Humidity 44    
Precipitation  
Precipitation 0.00 in 0.12 in 1.43 in (1915)
Month to date precipitation 5.37 3.40  
Year to date precipitation 29.27 26.02  
Snow  
Snow 0.00 in 0.00 in 0.00 in ()
Month to date snowfall 0.0 0.0  
Since 1 June snowfall 0.0 0.0  
Since 1 July snowfall 0.0 0.0  
Snow Depth 0.00 in    
Sea Level Pressure  
Sea Level Pressure 30.00 in    
Wind  
Wind Speed 6 mph (West)    
Max Wind Speed 15 mph    
Max Gust Speed 21 mph    
Visibility 10 miles    
Events      
T = Trace of Precipitation, MM = Missing Value Source: NWS Daily Summary

Daily Weather History Graph

Daily Weather History Graph

Search for Another Location

Airport:

Trip Planner

Search our weather history database for the weather conditions in past years. The results will help you decide how hot, cold, wet, or windy it might be!

Date:

Astronomy

Jul. 28, 2013 Rise Set
Actual Time 6:36 AM EDT 8:53 PM EDT
Civil Twilight 6:05 AM EDT 9:23 PM EDT
Nautical Twilight 5:28 AM EDT 10:00 PM EDT
Astronomical Twilight 4:48 AM EDT 10:41 PM EDT
Moon No Moon Rise 1:13 PM EDT (7/28)
Length of Visible Light 15h 17m
Length of Day
14h 17m
Waning Gibbous, 61% of the Moon is Illuminated
Jul 28
Waning Gibbous
Jul 29
Last Quarter
Aug 6
New
Aug 14
First Quarter
Aug 20
Full

Hourly Weather History & Observations

Time (EDT) Temp. Dew Point Humidity Pressure Visibility Wind Dir Wind Speed Gust Speed Precip Events Conditions
12:52 AM 63.0 °F 54.0 °F 72% 29.92 in 10.0 mi NW 8.1 mph - N/A   Clear
1:52 AM 61.0 °F 54.0 °F 78% 29.93 in 10.0 mi WNW 6.9 mph - N/A   Scattered Clouds
2:52 AM 59.0 °F 54.0 °F 83% 29.92 in 10.0 mi West 9.2 mph - N/A   Scattered Clouds
3:52 AM 55.9 °F 53.1 °F 90% 29.93 in 10.0 mi West 6.9 mph - N/A   Clear
4:52 AM 54.0 °F 52.0 °F 93% 29.94 in 10.0 mi West 6.9 mph - N/A   Clear
5:52 AM 54.0 °F 52.0 °F 93% 29.96 in 10.0 mi Calm Calm - N/A   Partly Cloudy
6:52 AM 53.1 °F 51.1 °F 93% 29.98 in 10.0 mi Calm Calm - N/A   Clear
7:52 AM 55.9 °F 53.1 °F 90% 30.00 in 10.0 mi West 5.8 mph - N/A   Clear
8:52 AM 59.0 °F 52.0 °F 78% 30.01 in 10.0 mi WNW 9.2 mph - N/A   Clear
9:52 AM 63.0 °F 50.0 °F 63% 30.01 in 10.0 mi WNW 8.1 mph - N/A   Clear
10:52 AM 64.9 °F 50.0 °F 58% 30.01 in 10.0 mi West 5.8 mph - N/A   Partly Cloudy
11:52 AM 68.0 °F 50.0 °F 52% 30.02 in 10.0 mi WSW 10.4 mph 16.1 mph N/A   Mostly Cloudy
12:52 PM 68.0 °F 48.9 °F 50% 30.02 in 10.0 mi West 6.9 mph - N/A   Mostly Cloudy
1:52 PM 71.1 °F 48.9 °F 45% 30.01 in 10.0 mi West 9.2 mph - N/A   Mostly Cloudy
2:52 PM 70.0 °F 50.0 °F 49% 30.01 in 10.0 mi WSW 3.5 mph 16.1 mph N/A   Scattered Clouds
3:52 PM 72.0 °F 50.0 °F 46% 29.99 in 10.0 mi West 10.4 mph - N/A   Scattered Clouds
4:52 PM 71.1 °F 48.9 °F 45% 30.01 in 10.0 mi WSW 8.1 mph - N/A   Mostly Cloudy
5:52 PM 72.0 °F 50.0 °F 46% 30.01 in 10.0 mi West 9.2 mph - N/A   Mostly Cloudy
6:52 PM 72.0 °F 51.1 °F 48% 30.01 in 10.0 mi West 9.2 mph - N/A   Scattered Clouds
7:52 PM 69.1 °F 50.0 °F 51% 30.03 in 10.0 mi West 8.1 mph - N/A   Scattered Clouds
8:52 PM 66.9 °F 51.1 °F 57% 30.04 in 10.0 mi WSW 3.5 mph - N/A   Scattered Clouds
9:52 PM 64.9 °F 53.1 °F 65% 30.06 in 10.0 mi SW 4.6 mph - N/A   Mostly Cloudy
10:52 PM 64.9 °F 53.1 °F 65% 30.06 in 10.0 mi SW 3.5 mph - N/A   Mostly Cloudy
11:52 PM 63.0 °F 53.1 °F 70% 30.06 in 10.0 mi WSW 3.5 mph - N/A   Mostly Cloudy